Starlink 31213

operational
NORAD ID: 58860 Int'l Des: 2024-019 Owner: SPXS Country: US Constellation: starlink
LEOCIRCULAR

Über Starlink 31213

Beschreibung wird geladen...

Live-Position

3D-Globus wird geladen...

Nächste Überflüge

Höhenverlauf

Altitude vs Time

uPlot chart will show altitude changes over time

Zweizeiliger Elementsatz

1 58860U 24019H 25306.12502176 -.00002939 00000-0 -97360-4 0 9997
2 58860 43.0033 249.2924 0001452 262.7067 97.3620 15.27561072 99579
Epoch: 2. Nov. 2025 • Age: 25 hours

Aktueller Status

Höhe 493.1 km
Geschwindigkeit 7.62 km/s
Subsatellitenpunkt -37.11°S, 89.4°E
Startdatum 29. Jan. 2024
Alter 1.7 years
Typ internet

Technische Details

Klassifizierung Payload
Masse 730.00 kg
Trockenmasse 700.00 kg
Gesamtmasse 730.00 kg
Länge 0.30 m
Durchmesser 4.10 m
Spannweite 29.00 m
Form Box + pan
Hersteller SPXS
Bus-Typ Starlink V2M
Phasenstatus In Orbit
Besitzer/Staat SPXS/US

Große Konstellationen

Loading constellations...